Find Local Weather

World > North America > United States > Kansas

Lake Wabaunsee, Kansas Regional Weather

Lat: 38.87N, Lon: 96.2W
Wx Zone: KSZ038
Feedback
Expires:201811192300;;557860
ASUS43 KTOP 192159
RWRKS 

WEATHER ROUNDUP FOR KANSAS
NATIONAL WEATHER SERVICE GOODLAND KS
400 PM CST MON NOV 19 2018

NOTE:  "FAIR" INDICATES FEW OR NO CLOUDS BELOW 12,000 FEET WITH NO
SIGNIFICANT WEATHER AND/OR OBSTRUCTIONS TO VISIBILITY.


KSZ007>012-019>026-033>040-048>060-102>105-192300-
NORTHEAST KANSAS
  
CITY           SKY/WX    TMP DP  RH WIND       PRES   REMARKS
CONCORDIA      CLOUDY    46  32  58 N13       30.18R                  
EMPORIA        CLOUDY    46  28  49 N8        30.16R                  
LAWRENCE       CLOUDY    44  27  51 NW13      30.16R                  
MANHATTAN      CLOUDY    48  31  51 N10       30.18R                  
OLATHE IND     CLOUDY    42  30  62 NW13      30.14R                  
OLATHE EXE     MOCLDY    42  29  59 NW9       30.13R                  
SALINA         MOSUNNY   50  33  52 N16       30.18R                  
TOPEKA BILLARD MOSUNNY   47  27  45 N10       30.16R                  
TOPEKA FORBES  CLOUDY    45  26  47 N10       30.15R                  
$$
  

SKY/WX - Weather  TMP - Temperature  DP - Dew Point  RH - Relative Humidity
WIND - Wind Direction/Speed PRES - Barometric Pressure